Weather History for KROG - February, 2013

Change the Weather History Date:

Monday, February 11, 2013

  Actual Average Record
Temperature  
Mean Temperature 41 °F -  
Max Temperature 52 °F 47 °F 66 °F (1999)
Min Temperature 30 °F 30 °F 10 °F (2011)
Degree Days  
Heating Degree Days 24    
Moisture  
Dew Point 24 °F    
Average Humidity 54    
Maximum Humidity 79    
Minimum Humidity 31    
Precipitation  
Precipitation 0.00 in - - ()
Sea Level Pressure  
Sea Level Pressure 30.15 in    
Wind  
Wind Speed 4 mph (WNW)    
Max Wind Speed 9 mph    
Max Gust Speed -    
Visibility 10 miles    
Events      
Averages and records for this station are not official NWS values.
T = Trace of Precipitation, MM = Missing Value Source: NWS Daily Summary

Daily Weather History Graph

Daily Weather History Graph

Search for Another Location

Airport or City:

Trip Planner

Search our weather history database for the weather conditions in past years. The results will help you decide how hot, cold, wet, or windy it might be!

Date:

Astronomy

Feb. 11, 2013 Rise Set
Actual Time 7:08 AM CST 5:53 PM CST
Civil Twilight 6:41 AM CST 6:20 PM CST
Nautical Twilight 6:11 AM CST 6:50 PM CST
Astronomical Twilight 5:41 AM CST 7:20 PM CST
Moon 7:37 AM CST (2/11) 7:46 PM CST (2/11)
Length of Visible Light 11h 38m
Length of Day
10h 45m
Waxing Crescent, 3% of the Moon is Illuminated
Feb 11
Waxing Crescent
Feb 17
First Quarter
Feb 25
Full
Mar 4
Last Quarter
Mar 11
New

Hourly Weather History & Observations

Time (CST) Temp. Windchill Dew Point Humidity Pressure Visibility Wind Dir Wind Speed Gust Speed Precip Events Conditions
12:57 AM 37.0 °F 34.5 °F 25.0 °F 62% 30.06 in 10.0 mi West 3.5 mph - N/A   Clear
1:57 AM 37.0 °F 33.3 °F 25.0 °F 62% 30.06 in 10.0 mi SW 4.6 mph - N/A   Clear
2:57 AM 36.0 °F 32.1 °F 25.0 °F 64% 30.07 in 10.0 mi West 4.6 mph - N/A   Clear
5:57 AM 33.1 °F 27.7 °F 25.0 °F 72% 30.15 in 10.0 mi WSW 5.8 mph - N/A   Clear
6:57 AM 30.9 °F 24.3 °F 25.0 °F 79% 30.14 in 10.0 mi WNW 6.9 mph - N/A   Clear
7:57 AM 32.0 °F 26.4 °F 25.0 °F 75% 30.19 in 10.0 mi West 5.8 mph - N/A   Clear
8:57 AM 36.0 °F 29.0 °F 26.1 °F 67% 30.19 in 10.0 mi NW 9.2 mph - N/A   Clear
9:57 AM 39.0 °F 34.0 °F 26.1 °F 60% 30.20 in 10.0 mi NNW 6.9 mph - N/A   Clear
10:57 AM 42.1 °F 37.7 °F 25.0 °F 51% 30.21 in 10.0 mi NW 6.9 mph - N/A   Clear
11:57 AM 45.0 °F 41.2 °F 24.1 °F 44% 30.20 in 10.0 mi North 6.9 mph - N/A   Clear
1:57 PM 50.0 °F - 21.9 °F 33% 30.15 in 10.0 mi Variable 4.6 mph - N/A   Clear
2:57 PM 51.1 °F - 21.0 °F 31% 30.14 in 10.0 mi WSW 3.5 mph - N/A   Clear
3:57 PM 52.0 °F - 21.9 °F 31% 30.12 in 10.0 mi WNW 8.1 mph - N/A   Clear
4:57 PM 51.1 °F - 21.9 °F 32% 30.12 in 10.0 mi Calm Calm - N/A   Clear
5:57 PM 48.9 °F - 21.0 °F 33% 30.13 in 10.0 mi WNW 3.5 mph - N/A   Clear
6:57 PM 46.0 °F 44.8 °F 21.9 °F 39% 30.15 in 10.0 mi North 3.5 mph - N/A   Clear
8:57 PM 41.0 °F - 24.1 °F 51% 30.17 in 10.0 mi Calm Calm - N/A   Clear
9:57 PM 36.0 °F - 24.1 °F 62% 30.17 in 10.0 mi Calm Calm - N/A   Clear
10:57 PM 35.1 °F - 25.0 °F 67% 30.17 in 10.0 mi Calm Calm - N/A   Clear
11:57 PM 36.0 °F - 27.0 °F 70% 30.16 in 10.0 mi Calm Calm - N/A   Clear